Temp
-12 -13 -13 -13 -13 -13 -13 -13 -13 -13 -13 -13 -13 -13 -13 -13 -13 -12 -13 -13 -12 -12 -12 -12 -12 -12 -11 -11 -10 -10 -9 -7 -8 -8 -8 -9 -8 -9 -9 -9 -10 -9 -8 -9 -8
-13 -13 -13 -13 -14 -14 -14 -13 -13 -13 -13 -13 -13 -13 -13 -13 -13 -13 -13 -13 -13 -12 -12 -12 -12 -11 -11 -10 -10 -10 -9 -8 -9 -10 -9 -10 -8 -9 -9 -9 -10 -9 -7 -9 -8
-13 -13 -13 -13 -14 -14 -14 -14 -14 -14 -13 -13 -13 -13 -13 -13 -13 -13 -13 -13 -12 -12 -12 -12 -12 -12 -11 -11 -10 -10 -9 -10 -9 -10 -10 -11 -10 -9 -9 -9 -9 -10 -9 -9 -10
-14 -14 -14 -14 -14 -14 -14 -14 -14 -14 -14 -14 -14 -14 -13 -13 -13 -13 -13 -13 -12 -12 -12 -12 -12 -12 -11 -11 -11 -10 -10 -10 -10 -10 -10 -11 -11 -10 -9 -9 -9 -9 -9 -8 -9
-14 -14 -14 -14 -14 -14 -14 -14 -15 -15 -14 -14 -14 -14 -14 -14 -14 -14 -13 -13 -13 -13 -12 -12 -12 -12 -12 -12 -11 -10 -10 -10 -10 -10 -10 -11 -12 -10 -10 -10 -9 -9 -9 -8 -7
-14 -14 -14 -14 -14 -14 -14 -14 -14 -14 -14 -14 -14 -14 -14 -14 -14 -14 -13 -13 -13 -13 -13 -13 -12 -12 -12 -12 -12 -11 -11 -10 -10 -10 -10 -11 -10 -11 -10 -11 -10 -9 -9 -9 -9
-14 -14 -14 -14 -14 -14 -14 -14 -14 -14 -14 -13 -14 -14 -14 -14 -13 -14 -14 -14 -13 -13 -13 -13 -13 -13 -12 -12 -12 -11 -11 -11 -11 -11 -11 -12 -11 -11 -10 -11 -11 -11 -10 -10 -10
-15 -15 -15 -14 -15 -15 -14 -15 -14 -14 -14 -13 -13 -13 -13 -13 -13 -14 -13 -13 -13 -13 -13 -13 -13 -13 -13 -12 -12 -12 -11 -11 -11 -12 -12 -13 -10 -10 -11 -11 -12 -11 -10 -11 -11
-15 -15 -15 -15 -15 -15 -15 -15 -14 -14 -14 -14 -14 -14 -14 -13 -14 -13 -13 -13 -13 -13 -13 -13 -13 -13 -13 -13 -13 -13 -12 -12 -12 -13 -13 -13 -10 -10 -11 -11 -11 -11 -11 -11 -12
-16 -16 -16 -15 -15 -15 -15 -15 -14 -14 -14 -14 -14 -14 -14 -14 -14 -13 -14 -14 -14 -14 -13 -13 -13 -13 -13 -13 -13 -13 -13 -12 -12 -13 -13 -12 -10 -10 -11 -11 -11 -10 -11 -12 -11
-16 -16 -16 -16 -15 -15 -15 -15 -15 -15 -14 -14 -14 -14 -14 -14 -14 -14 -14 -14 -14 -14 -14 -13 -13 -13 -13 -13 -13 -13 -13 -13 -13 -13 -13 -12 -11 -11 -11 -11 -10 -10 -10 -10 -10
-16 -15 -16 -16 -16 -15 -15 -15 -15 -15 -15 -15 -14 -15 -14 -14 -15 -14 -14 -14 -14 -14 -13 -13 -14 -14 -13 -14 -14 -13 -13 -13 -13 -13 -13 -13 -12 -11 -11 -11 -11 -11 -10 -10 -10
-16 -15 -15 -15 -15 -15 -15 -15 -15 -15 -15 -15 -15 -15 -15 -15 -15 -15 -15 -15 -14 -14 -14 -14 -14 -14 -14 -14 -14 -14 -14 -13 -13 -13 -13 -13 -12 -11 -11 -11 -11 -11 -11 -11 -11
-15 -15 -15 -15 -15 -15 -16 -16 -16 -16 -16 -15 -15 -15 -15 -15 -15 -15 -15 -15 -15 -15 -14 -14 -14 -14 -15 -15 -15 -15 -16 -15 -15 -14 -13 -15 -12 -11 -11 -11 -11 -11 -11 -11 -11
-15 -15 -15 -15 -15 -15 -16 -16 -16 -16 -16 -16 -16 -15 -16 -16 -16 -15 -15 -15 -14 -15 -14 -16 -16 -16 -17 -17 -18 -17 -17 -17 -17 -15 -15 -13 -14 -11 -12 -11 -11 -12 -12 -12 -12
-14 -15 -15 -15 -15 -15 -16 -16 -16 -16 -16 -16 -15 -16 -17 -16 -15 -15 -15 -15 -15 -15 -16 -17 -18 -18 -19 -19 -19 -19 -18 -17 -18 -17 -18 -15 -18 -11 -12 -12 -13 -14 -13 -13 -13
-15 -15 -15 -15 -15 -15 -16 -16 -17 -17 -17 -16 -17 -18 -17 -16 -17 -17 -17 -17 -17 -16 -18 -19 -19 -19 -20 -20 -20 -20 -20 -19 -19 -20 -19 -19 -19 -13 -13 -14 -13 -13 -13 -13 -13
-14 -14 -14 -15 -15 -15 -15 -16 -16 -17 -17 -17 -19 -19 -19 -17 -18 -18 -18 -19 -19 -18 -18 -19 -18 -20 -21 -20 -20 -20 -22 -22 -22 -21 -20 -21 -18 -16 -17 -17 -15 -15 -14 -14 -13
-14 -14 -14 -15 -15 -15 -16 -16 -17 -18 -18 -18 -19 -18 -19 -18 -18 -19 -19 -20 -19 -19 -19 -19 -19 -20 -21 -20 -21 -20 -21 -22 -21 -21 -21 -20 -20 -19 -18 -20 -18 -17 -14 -13 -14
-15 -15 -15 -15 -16 -16 -16 -17 -18 -18 -18 -18 -18 -18 -18 -19 -18 -18 -19 -20 -19 -19 -19 -19 -19 -19 -20 -21 -22 -22 -21 -21 -21 -21 -21 -20 -20 -19 -19 -20 -20 -19 -16 -14 -13
-15 -15 -15 -16 -16 -16 -16 -17 -17 -18 -18 -18 -18 -18 -18 -18 -18 -19 -20 -20 -20 -19 -20 -20 -19 -19 -20 -21 -21 -21 -21 -21 -21 -21 -21 -21 -20 -20 -19 -20 -20 -19 -18 -14 -14
-15 -15 -15 -16 -16 -16 -17 -17 -17 -17 -17 -18 -17 -18 -18 -18 -19 -19 -20 -19 -19 -19 -19 -19 -19 -19 -19 -20 -21 -21 -21 -21 -22 -21 -22 -22 -20 -20 -21 -20 -20 -19 -19 -17 -15
-15 -15 -16 -16 -16 -16 -17 -17 -17 -17 -17 -18 -18 -18 -18 -19 -19 -20 -20 -20 -19 -19 -19 -19 -19 -19 -19 -20 -20 -20 -21 -21 -21 -21 -21 -22 -20 -21 -21 -21 -21 -19 -19 -19 -17
-15 -15 -16 -16 -16 -16 -17 -17 -17 -17 -17 -18 -18 -19 -19 -19 -20 -20 -20 -20 -19 -19 -19 -19 -20 -20 -20 -20 -20 -20 -21 -21 -22 -22 -21 -20 -21 -21 -22 -21 -20 -19 -19 -19 -19
-15 -16 -16 -16 -16 -17 -17 -17 -17 -18 -17 -18 -19 -19 -19 -19 -20 -20 -20 -20 -20 -20 -20 -20 -20 -19 -20 -20 -20 -20 -21 -22 -21 -21 -21 -20 -21 -21 -21 -20 -19 -19 -19 -18 -19
-15 -16 -16 -16 -16 -17 -17 -17 -17 -18 -18 -18 -18 -19 -20 -19 -19 -20 -20 -20 -20 -20 -20 -20 -20 -19 -20 -20 -20 -20 -20 -21 -21 -21 -21 -20 -20 -21 -21 -20 -20 -20 -18 -18 -18
-16 -16 -16 -16 -16 -17 -17 -17 -18 -17 -18 -18 -19 -19 -20 -20 -20 -20 -20 -20 -20 -20 -20 -20 -20 -19 -20 -20 -20 -20 -21 -21 -21 -21 -21 -21 -21 -20 -20 -20 -20 -20 -19 -18 -16
Height
5764 5762 5761 5759 5759 5758 5757 5757 5756 5756 5756 5756 5756 5756 5757 5759 5760 5763 5764 5767 5769 5773 5776 5779 5783 5786 5790 5794 5797 5801 5804 5811 5819 5825 5834 5833 5838 5841 5840 5840 5845 5845 5850 5852 5853
5760 5758 5756 5754 5753 5752 5752 5752 5751 5751 5750 5751 5751 5751 5752 5753 5755 5756 5759 5760 5762 5765 5769 5772 5774 5777 5782 5787 5790 5793 5796 5803 5811 5815 5818 5823 5831 5831 5834 5837 5838 5839 5841 5847 5849
5756 5754 5751 5749 5747 5746 5745 5745 5745 5745 5745 5745 5745 5746 5746 5748 5750 5750 5752 5754 5756 5759 5761 5764 5765 5770 5774 5778 5782 5785 5789 5796 5799 5804 5805 5810 5820 5825 5828 5833 5834 5833 5833 5834 5839
5753 5750 5747 5745 5743 5741 5740 5739 5739 5739 5739 5739 5739 5740 5741 5743 5746 5745 5746 5748 5751 5752 5754 5757 5759 5762 5765 5770 5774 5776 5780 5783 5788 5790 5795 5802 5807 5815 5820 5831 5833 5829 5831 5831 5832
5751 5748 5745 5742 5739 5737 5735 5734 5733 5732 5733 5733 5733 5733 5734 5737 5739 5739 5741 5743 5745 5747 5749 5751 5752 5754 5758 5762 5764 5767 5772 5771 5775 5780 5784 5789 5795 5802 5807 5820 5823 5825 5826 5827 5828
5748 5745 5742 5739 5736 5734 5732 5730 5728 5727 5727 5727 5727 5727 5728 5730 5732 5731 5733 5736 5738 5741 5742 5745 5746 5749 5751 5754 5757 5760 5763 5766 5770 5775 5776 5776 5784 5786 5801 5807 5811 5817 5818 5821 5819
5745 5742 5739 5736 5733 5731 5728 5726 5724 5723 5722 5721 5721 5721 5722 5723 5723 5727 5727 5727 5729 5732 5735 5735 5738 5740 5743 5744 5746 5749 5752 5757 5761 5762 5762 5763 5770 5779 5799 5795 5796 5804 5810 5810 5813
5741 5738 5735 5733 5730 5728 5726 5723 5721 5719 5718 5717 5716 5716 5716 5716 5718 5719 5719 5721 5722 5724 5726 5728 5729 5731 5733 5735 5738 5740 5743 5747 5751 5748 5749 5748 5759 5775 5780 5780 5784 5790 5799 5802 5806
5735 5732 5731 5729 5726 5724 5722 5720 5718 5716 5714 5713 5713 5712 5713 5712 5712 5711 5714 5714 5715 5716 5718 5720 5722 5723 5724 5726 5729 5729 5733 5735 5737 5735 5733 5733 5752 5765 5763 5762 5769 5779 5785 5793 5794
5729 5726 5724 5723 5721 5720 5718 5716 5715 5713 5711 5710 5709 5710 5709 5709 5708 5707 5708 5708 5709 5710 5711 5712 5714 5715 5715 5715 5716 5718 5720 5723 5723 5723 5720 5728 5740 5746 5749 5747 5752 5759 5764 5772 5784
5725 5721 5718 5717 5716 5714 5714 5713 5713 5710 5708 5707 5706 5705 5704 5704 5704 5703 5704 5703 5703 5703 5704 5703 5705 5705 5705 5704 5704 5707 5707 5709 5711 5711 5711 5715 5723 5732 5736 5740 5744 5749 5755 5756 5760
5721 5717 5714 5710 5710 5710 5708 5707 5707 5706 5704 5702 5702 5700 5699 5699 5699 5697 5698 5698 5697 5697 5696 5697 5696 5695 5695 5694 5693 5695 5696 5696 5699 5699 5698 5701 5710 5720 5724 5728 5733 5738 5743 5747 5752
5719 5714 5710 5705 5703 5703 5702 5701 5700 5700 5699 5698 5696 5695 5694 5695 5693 5692 5692 5691 5690 5689 5689 5688 5688 5686 5684 5682 5681 5682 5680 5682 5682 5687 5687 5685 5696 5707 5713 5713 5719 5725 5731 5735 5740
5717 5711 5706 5702 5699 5696 5695 5695 5694 5694 5694 5694 5691 5689 5689 5687 5687 5685 5685 5686 5684 5683 5682 5679 5678 5677 5675 5671 5669 5669 5667 5666 5667 5671 5672 5672 5676 5690 5698 5699 5702 5709 5714 5720 5726
5716 5710 5705 5699 5695 5692 5692 5689 5688 5688 5688 5688 5685 5684 5684 5682 5680 5678 5676 5675 5674 5673 5673 5670 5669 5668 5664 5662 5660 5658 5654 5654 5653 5655 5653 5663 5654 5682 5681 5685 5692 5694 5698 5704 5709
5718 5711 5705 5700 5696 5692 5688 5684 5684 5684 5679 5677 5676 5679 5677 5674 5673 5671 5669 5666 5665 5664 5662 5660 5658 5656 5653 5652 5650 5645 5641 5641 5639 5640 5634 5648 5641 5658 5667 5672 5673 5673 5675 5682 5688
5719 5713 5706 5701 5696 5691 5687 5683 5681 5678 5676 5672 5673 5672 5669 5667 5666 5665 5664 5660 5658 5657 5657 5655 5652 5650 5648 5646 5643 5636 5629 5626 5627 5628 5624 5631 5628 5644 5646 5649 5647 5654 5659 5665 5673
5719 5713 5707 5700 5695 5690 5686 5682 5677 5673 5669 5668 5667 5666 5663 5662 5662 5661 5657 5655 5651 5651 5651 5650 5649 5647 5643 5639 5634 5631 5628 5623 5617 5617 5617 5618 5615 5629 5629 5625 5631 5634 5643 5651 5661
5720 5713 5707 5700 5694 5688 5683 5678 5673 5670 5668 5665 5662 5659 5659 5656 5656 5654 5651 5648 5646 5647 5647 5643 5642 5641 5636 5632 5628 5626 5624 5620 5613 5613 5609 5613 5615 5616 5615 5614 5615 5616 5622 5634 5644
5719 5713 5706 5699 5692 5687 5681 5674 5669 5666 5664 5661 5657 5655 5653 5653 5650 5646 5644 5644 5642 5642 5640 5637 5631 5634 5631 5627 5624 5618 5616 5614 5610 5605 5602 5607 5606 5606 5605 5604 5604 5605 5607 5618 5629
5718 5712 5706 5699 5692 5685 5678 5671 5666 5661 5657 5655 5650 5647 5645 5644 5642 5640 5640 5639 5638 5638 5635 5631 5628 5628 5623 5620 5614 5612 5607 5605 5603 5601 5595 5596 5596 5597 5598 5596 5595 5595 5598 5604 5615
5717 5710 5704 5698 5692 5683 5676 5669 5663 5658 5654 5649 5645 5643 5640 5639 5638 5638 5636 5633 5634 5631 5630 5626 5622 5619 5617 5612 5607 5602 5599 5596 5591 5592 5589 5587 5587 5589 5590 5588 5585 5587 5588 5590 5599
5714 5708 5702 5696 5689 5682 5675 5668 5660 5655 5650 5647 5642 5639 5637 5635 5636 5635 5632 5629 5626 5625 5622 5621 5617 5608 5608 5606 5601 5594 5590 5587 5584 5580 5580 5579 5578 5581 5581 5580 5580 5578 5578 5578 5583
5711 5705 5698 5692 5686 5680 5673 5666 5659 5652 5647 5643 5639 5636 5633 5631 5629 5630 5628 5626 5621 5620 5617 5615 5613 5608 5602 5596 5591 5585 5582 5579 5576 5571 5570 5572 5574 5577 5575 5573 5574 5568 5568 5572 5574
5707 5702 5696 5688 5681 5676 5670 5664 5657 5651 5645 5640 5636 5631 5629 5627 5625 5624 5623 5621 5617 5616 5613 5609 5606 5602 5597 5589 5582 5576 5572 5571 5566 5562 5561 5569 5567 5570 5569 5570 5566 5561 5560 5562 5566
5703 5697 5692 5686 5680 5673 5667 5661 5655 5649 5642 5637 5632 5628 5623 5621 5620 5620 5618 5615 5615 5612 5608 5605 5601 5597 5591 5585 5577 5571 5567 5564 5562 5560 5557 5557 5563 5564 5566 5564 5562 5556 5553 5559 5562
5700 5694 5686 5682 5676 5669 5664 5657 5651 5645 5639 5633 5628 5624 5619 5616 5613 5613 5612 5611 5609 5607 5604 5599 5595 5589 5585 5580 5573 5569 5565 5561 5558 5556 5554 5551 5556 5559 5559 5561 5558 5554 5554 5560 5560
Wind_Speed
16 18 20 21 20 21 21 22 23 21 20 20 21 24 24 29 27 26 29 30 31 36 41 45 44 43 41 39 43 48 46 37 42 47 44 32 41 45 47 43 36 36 32 38 39
16 16 17 18 20 20 19 20 21 21 21 20 19 18 22 26 29 28 30 31 31 31 32 35 40 43 41 41 44 47 50 41 44 48 48 44 41 49 52 50 41 39 42 38 33
15 16 16 17 18 19 20 20 20 20 20 20 20 19 19 19 22 24 27 28 30 32 33 34 35 38 41 41 42 43 45 45 49 50 49 50 52 48 58 55 47 44 41 41 38
16 15 15 16 17 18 18 19 20 21 23 22 22 21 21 20 20 20 22 24 26 29 31 34 35 37 39 40 42 42 40 41 41 52 55 51 55 52 50 56 56 49 48 47 44
16 16 16 15 16 17 18 20 20 21 21 21 23 24 24 22 20 21 24 24 25 27 29 32 34 37 38 40 41 43 44 46 44 45 50 60 54 54 60 49 61 56 50 51 56
17 15 15 15 15 14 16 17 18 21 23 24 24 24 25 24 21 25 26 26 27 28 29 30 33 36 37 38 40 42 43 45 45 43 44 50 57 61 55 57 58 60 65 65 64
19 17 15 14 14 14 14 14 15 16 17 18 20 23 24 25 25 24 27 28 29 29 30 32 33 34 36 38 40 42 44 45 45 45 47 49 51 51 54 54 61 59 58 60 56
22 20 19 17 15 14 14 13 13 14 14 14 15 17 18 20 20 21 25 27 29 30 31 32 34 36 38 39 40 43 45 46 45 48 47 48 52 44 48 49 64 61 57 61 59
25 24 22 19 18 16 14 14 13 13 11 12 13 13 13 16 15 20 19 22 25 27 28 31 33 36 39 40 42 44 45 47 46 46 49 52 52 46 49 52 52 58 68 58 65
24 24 22 21 18 17 15 14 13 15 12 9 9 9 10 11 14 18 18 20 22 23 27 29 31 33 35 39 42 44 47 48 51 51 53 53 53 54 54 58 58 56 58 63 67
25 24 24 21 18 17 17 16 14 16 13 10 11 11 10 12 14 15 15 18 21 23 25 30 33 34 37 42 45 46 48 50 52 55 58 58 57 55 55 57 59 58 58 62 62
25 24 22 20 23 20 18 17 17 15 16 16 13 14 17 14 13 15 14 16 18 20 22 25 28 33 36 39 43 45 48 51 52 55 59 60 59 56 58 56 56 58 59 60 60
25 21 21 19 18 24 25 24 22 18 17 17 16 19 15 15 17 18 17 19 21 22 24 27 29 33 37 40 43 45 48 51 55 55 57 61 60 56 55 57 57 57 57 58 59
30 25 23 18 19 17 20 23 22 21 19 17 16 17 18 20 19 21 21 20 24 24 26 29 33 35 36 40 44 47 48 52 54 56 59 58 64 61 58 60 60 59 59 59 57
30 29 26 20 18 19 17 19 19 17 18 18 19 18 17 21 22 24 25 25 25 27 32 29 27 27 27 27 28 39 47 51 54 56 61 59 65 59 61 63 61 62 62 60 59
30 29 28 27 24 22 21 17 19 19 21 25 27 16 15 22 23 25 26 28 29 32 32 30 25 23 24 23 27 35 39 44 52 57 60 59 58 62 59 59 61 62 65 65 62
34 31 29 28 26 25 24 21 18 20 20 25 19 17 19 21 24 25 28 29 32 36 29 15 18 22 24 27 30 39 35 40 42 42 49 53 58 60 59 59 64 65 65 67 65
35 34 33 31 27 25 26 24 21 21 21 19 14 18 22 22 24 26 28 28 31 29 12 14 18 23 23 27 32 31 25 25 27 27 26 22 41 49 48 53 60 63 64 62 65
32 32 32 32 30 30 33 30 24 21 21 20 18 19 18 24 24 25 27 27 22 13 16 21 25 24 24 26 30 29 24 17 26 26 25 20 18 17 29 31 43 54 63 63 62
34 32 33 32 29 31 35 31 24 21 20 22 26 23 19 17 24 26 20 18 14 15 20 25 31 23 22 24 24 30 30 31 27 28 31 30 28 27 31 32 35 43 53 61 56
33 33 32 32 30 31 35 31 26 22 20 20 19 18 18 19 17 7 8 11 15 17 21 26 29 24 20 17 25 26 32 32 35 39 33 37 33 34 30 33 36 40 46 53 55
32 33 33 32 31 32 33 35 27 23 21 20 19 13 15 15 8 7 11 18 17 20 19 17 17 18 16 15 23 27 28 33 36 36 41 39 37 35 26 24 28 34 42 48 49
32 33 33 32 31 32 32 33 32 26 23 18 18 17 17 9 10 9 13 17 20 18 16 16 24 31 23 23 29 31 30 27 28 34 33 38 26 25 26 31 29 32 38 45 50
32 33 34 33 32 31 31 33 32 31 26 20 17 17 15 13 14 9 12 15 19 15 18 22 18 23 29 32 33 31 24 25 31 37 37 35 34 21 25 33 27 29 24 28 36
32 32 33 33 34 32 32 31 33 31 30 26 20 20 17 17 18 15 12 14 18 19 19 22 23 27 28 30 34 28 19 19 25 29 34 25 28 24 28 29 27 27 23 28 38
32 33 33 32 32 33 32 33 32 33 33 29 25 21 21 17 21 19 20 18 16 21 18 19 23 25 19 26 28 20 16 19 24 21 25 32 27 23 24 21 26 27 5 23 41
29 31 35 34 33 33 34 33 34 34 34 33 30 24 22 21 19 22 22 17 19 20 20 20 22 27 23 25 28 22 16 18 15 16 20 26 25 25 18 15 19 26 16 32 17
Wind_Direction
306 292 284 281 278 274 274 272 275 276 276 274 268 262 255 256 245 249 244 241 234 233 234 237 236 236 236 231 236 237 239 239 237 235 224 223 206 204 206 197 193 210 211 225 229
313 308 298 286 279 276 273 270 269 270 271 271 269 264 258 252 251 242 249 248 245 241 237 237 237 238 236 234 236 238 241 245 238 235 235 224 216 210 214 204 199 210 211 221 229
319 314 307 297 288 282 279 275 269 268 266 266 265 262 258 253 248 240 241 245 245 243 242 240 240 237 235 234 239 238 242 244 241 237 231 226 211 218 217 217 205 210 217 225 234
339 328 317 309 297 287 281 276 273 268 264 261 260 258 255 250 249 248 244 244 243 243 242 242 242 240 240 237 236 238 242 242 239 233 230 226 222 219 221 220 221 219 223 226 227
338 330 323 316 309 302 288 277 272 271 268 265 261 257 256 252 249 249 245 243 242 241 240 240 242 242 240 241 240 241 239 242 240 235 236 234 227 221 220 222 228 227 230 237 241
331 333 330 322 315 306 297 293 285 273 267 264 262 263 260 256 248 244 248 246 244 241 244 241 240 242 246 246 244 245 244 243 245 244 243 240 234 230 221 223 226 227 235 237 239
321 323 324 325 322 318 308 301 293 286 280 275 267 259 259 259 251 248 246 249 248 247 243 245 245 245 243 244 245 245 243 240 241 245 246 248 238 239 233 221 225 224 223 225 226
312 315 318 316 314 319 319 312 301 290 283 279 273 271 268 264 263 256 249 247 248 249 248 246 246 245 245 246 246 247 246 243 241 243 243 244 233 229 234 237 226 228 219 222 225
311 304 302 305 305 308 314 316 315 304 297 284 272 270 268 267 272 265 263 257 255 255 253 252 250 250 252 249 248 247 245 246 243 245 245 245 236 227 230 234 231 233 232 220 225
316 308 305 300 299 299 303 303 308 308 308 289 282 277 274 266 259 264 267 269 267 265 264 262 260 258 258 255 250 247 248 246 245 243 245 246 241 235 229 231 236 226 227 233 222
331 322 309 294 300 299 294 292 299 295 296 294 289 279 270 272 265 260 258 260 263 265 267 270 268 264 262 262 259 254 250 247 247 247 246 248 245 241 239 236 235 236 233 232 228
338 330 326 306 285 293 297 300 289 289 290 286 288 282 287 276 267 267 265 269 272 274 276 275 274 274 272 267 263 261 259 256 251 248 249 247 245 244 243 242 240 239 237 237 241
353 347 340 334 309 274 278 290 295 284 282 282 282 284 267 271 274 274 277 279 277 279 280 281 280 279 277 273 271 266 262 258 255 251 251 251 247 244 242 245 243 242 243 242 240
346 346 342 328 331 301 284 282 283 284 279 279 273 268 262 273 272 274 276 273 276 279 283 285 283 281 277 272 270 268 264 262 259 257 252 249 250 243 243 243 243 241 240 241 244
7 2 359 350 338 332 315 289 280 281 276 265 265 266 275 275 278 280 281 284 293 301 298 296 288 280 277 275 278 273 263 259 258 258 259 254 256 245 242 242 242 245 243 242 240
7 6 10 11 2 348 336 321 286 280 271 276 276 281 274 273 268 277 293 298 303 305 304 305 302 302 305 305 308 299 281 263 256 255 253 254 256 246 247 245 243 242 241 240 239
7 8 9 8 7 3 355 338 312 293 277 282 296 301 296 285 296 303 303 307 307 302 304 300 302 304 307 307 300 311 293 278 261 259 268 258 255 251 250 247 244 241 240 240 238
4 3 2 1 0 1 355 346 334 317 297 290 298 292 288 293 299 303 304 305 296 301 308 292 297 310 302 300 304 312 297 291 282 275 260 258 254 251 254 254 250 248 242 239 240
4 0 358 358 355 354 351 344 335 330 318 297 272 273 285 293 300 298 294 286 292 291 300 303 302 308 295 285 292 297 283 270 261 260 265 258 257 223 233 256 247 246 244 239 237
1 359 356 357 355 354 352 347 344 328 319 315 311 284 274 284 292 292 285 265 271 290 306 305 302 313 298 288 286 287 289 262 263 274 277 258 250 251 253 270 261 245 245 242 236
355 359 357 353 352 352 353 352 344 337 328 317 309 303 298 298 289 247 249 264 279 297 299 300 306 317 308 300 293 279 280 277 269 264 269 272 266 268 261 271 264 253 245 242 236
352 355 357 353 352 354 354 355 351 344 337 338 327 322 307 299 235 273 298 297 298 296 300 301 315 330 321 282 279 278 271 269 273 271 267 268 261 271 279 283 277 258 250 239 228
349 351 352 354 351 351 352 356 356 354 344 341 326 319 316 271 241 292 301 300 302 307 307 315 325 321 334 320 314 291 276 274 276 272 264 265 262 269 275 280 285 274 256 252 223
343 346 350 349 352 350 352 353 356 355 352 346 329 316 315 248 242 256 294 299 298 314 311 308 322 337 334 323 316 313 283 280 282 275 265 263 270 267 282 276 296 278 248 255 234
338 341 346 347 347 347 348 350 351 352 351 349 332 320 316 256 251 270 288 293 314 314 303 313 325 327 331 324 320 320 298 277 285 273 261 253 278 276 278 280 291 277 260 235 223
334 337 341 346 345 343 343 344 345 346 343 344 339 317 310 297 255 252 278 287 290 307 302 308 319 329 341 346 338 325 302 300 304 290 281 268 265 268 275 295 308 286 134 216 219
330 335 336 341 343 342 340 339 338 338 339 336 336 327 305 302 275 259 266 274 283 299 308 319 322 329 341 338 342 341 321 306 316 291 285 264 262 259 276 294 310 292 309 206 216